Погода в Ачинске

Погода в Ачинске : погода сейчас, прогноз погоды и архив. Всё, что Вы хотите узнать о погоде в Ачинске!

Поиск расширенной информации на нашем сайте:

Другие новости

Новости СМИ2

Главная страница сайта

Новости сайта

03.07.2017

Напоминаем, что на нашем специализированном сайте Метеоцентр.Азия вы можете получить высокодетализированные автоматические прогнозы погоды по пунктам России, СНГ и мира в авиационном формате (включающие направление и скорость ветра, видимость, явления погоды, количество и форму облачности, нижнюю и верхнюю границу облачности).


Погода в Ачинске - сегодня

Время (UTC), дата Ветер
(°,м/с) 
Видим.   Явления Облачность Т
(°С)
Тd
(°С)
f(%) Тe
(°С)
Pmin
(гПа)
dP
(гПа)
Po
(мм)
O2
(г/м3)
Тmin Tmax R s Состояние
почвы
21 11.12.17 тихо ()   4000 м  дым  9/0 средняя, верхняя 
[Ac trans|Ci fib]
-10.2 -10.4 98 -10  1028.6  -0.8  746  313           
00 12.12.17 тихо ()   4000 м  слаб. снег  10/0 средняя 
[As trans]
-11 -11.3 98 -11  1028.4  -0.3  746  314  -11.5    0.0  11  равномерный
сухой снег
100% 
03 12.12.17 210 (ЮЗ) 4000 м  слаб. снег  10/0 средняя 
[As op]
-12.1 -12.6 96 -12  1029.2  0.6  746  316  -12.4         
06 12.12.17 тихо ()   4000 м  дым{снег}  10/0 верхняя 
[Cs]
-10.5 -11.2 95 -11  1029.1  0.2  747  314           
09 12.12.17 220 (ЮЗ) 4000 м  дым  10/0 верхняя 
[Cs]
-10.8 -11.4 95 -11  1029.7  0.5  747  314           
12 12.12.17 240 (ЮЗ) 10 км  слаб. снег  10/0 верхняя 
[Cs]
-10.3 -10.5 98 -12  1030.8  1.1  748  314    -9.9  0.6     
15 12.12.17 250 (З) 20000 м  слаб. снег  9/9 600 м 
[Sc]
-10.8 -11 98 -13  1032.1  1.2  749  315           
18 12.12.17 240 (ЮЗ) 10 км  слаб. снег  10/10 600 м 
[Frnb]
-11.8 -12.2 97 -15  1033.1  0.8  749  317           
21 12.12.17 260 (З) 10 км  слаб. снег  9/9 600 м 
[Sc]
-11.9 -12.3 97 -14  1034.1  750  317           
00 13.12.17 260 (З) 20000 м  слаб. снег  10/5 600 м средняя 
[Sc|As op]
-12.8 -13.3 96 -15  1036.1  1.8  751  319  -12.8    12  равномерный
сухой снег
100% 
03 13.12.17 250 (З) 4000 м  слаб. снег  10/3 600 м средняя, верхняя 
[Sc|Ac As|Cs]
-13.7 -14.4 94 -16  1038.3  753  321  -13.7         
06 13.12.17 250 (З) 10 км  слаб. снег  10/0 средняя, верхняя 
[Ac trans|Cs]
-13.9 -14.9 92 -18  1039.6  1.3  754  321           
09 13.12.17 250 (З) 20000 м  {снег}  10/0 средняя, верхняя 
[Ac trans|Cs]
-13.4 -15 88 -17  1040.3  0.7  754  321           
12 13.12.17 240 (ЮЗ) 10 км  слаб. снег  9/9 600 м 
[Sc]
-14.2 -15.4 91 -18  1041.6  1.1  755  322    -12.8  0.5     
15 13.12.17 240 (ЮЗ) 10 км  слаб. снег  10/0 верхняя 
[Cs]
-13.5 -15 88 -19  1041.2  -0.2  755  321           
18 13.12.17 250 (З) 10 км  слаб. снег  10/0 верхняя 
[Cs]
-13.7 -15.2 88 -18  1041.6  0.4  755  322           
21 13.12.17 250 (З) 10 км  слаб. снег  10/0 верхняя 
[Cs]
-13.8 -15.2 89 -17  1042.4  0.7  756  322           
00 14.12.17 250 (З) 10 км  слаб. снег  10/0 верхняя 
[Cs]
-13.9 -15.1 91 -18  1043.7  1.2  757  323  -14.2    0.4  12  равномерный
сухой снег
100% 
03 14.12.17 250 (З) 10 км  слаб. снег  10/0 средняя 
[As op]
-14.2 -15.3 91 -18  1045.7  758  324           
06 14.12.17 240 (ЮЗ) 4000 м  слаб. снег  10/0 верхняя 
[Cs]
-13.7 -15.3 88 -19  1046.9  1.1  759  323           
09 14.12.17 240 (ЮЗ) 4000 м  слаб. снег  10/0 средняя 
[As trans]
-13.5 -15.3 86 -19  1047.7  0.8  760  323           
12 14.12.17 240 (ЮЗ) 10 км  слаб. снег  10/3 600 м средняя 
[Sc|As trans]
-13.2 -15.8 81 -19  1048.9  1.2  761  323    -13.2  0.9     
15 14.12.17 240 (ЮЗ) 5{10}  10 км  слаб. снег  9/9 600 м 
[Sc]
-13.7 -16.3 81 -19  1049.4  0.4  761  324           
18 14.12.17 240 (ЮЗ) 4{10}  10 км  слаб. снег  10/10 600 м 
[Ns]
-15.1 -16.9 86 -20  1050.2  0.6  761  326           
21 14.12.17 240 (ЮЗ) 20000 м  {снег}  10/10 600 м 
[Ns]
-15.4 -17.3 85 -20  1050  -0.2  761  326           
Время (UTC), дата Ветер
(°,м/с) 
Видим.   Явления Облачность Т
(°С)
Тd
(°С)
f(%) Тe
(°С)
Pmin
(гПа)
dP
(гПа)
Po
(мм)
O2
(г/м3)
Тmin Tmax R s Состояние
почвы

Для получения пояснительной информации подведите курсор к названию столбца.

ПОГОДА в Ачинске - архив

Всё, что Вы хотите узнать о погоде в Ачинске - удобно и подробно!

Выберите нужную дату (начиная с 1 января 2015* года) и нажмите кнопку "Найти".
Будут отображены архивные сводки погоды по пункту Ачинск, начиная с указанной даты.


Отображать данные в формате CSV (для использования в таблицах Excel)


Внимание! Наш архив погоды предназначен исключительно для личного некоммерческого использования в познавательных целях. Если Вам необходимы официальные справки о состоянии погоды (для производственных, юридических, коммерческих и т.п. целей), обращайтесь в органы Росгидромета.

*Примечание: данная дата относится к архиву по метеостанциям СССР (Россия, СНГ, Балтия).
Архив по метеостанциям Зарубежной Европы и Азии (кроме Китая) хранится 10 дней, по другим регионам земного шара (Китай, Африка, Америка, Австралия, Океания) - 1 день.

Ачинск - район местоположения метеостанции


Название, широта, долгота, высота метеостанции:
Ачинск 56.3°ш. 90.5°д. 272 м над ур. моря [Российская Федерация]

Дополнительная информация

В oтличие oт бoльшинства пoгoдных сайтoв мы публикуем пoдрoбную метеoинфoрмацию в детальнoм прoфессиoнальнoм фoрмате.

Характеристики температуры и влажнoсти вoздуха измеряются на высoте 2 м в тени вдали oт зданий и деревьев.
Скoрoсть ветра измеряется на высoте 10 м (на урoвне рoста челoвека скoрoсть ветра ниже в 1.5-2 раза). Если метеoстанция нахoдится в гoрoде или в лесу, тo скoрoсть ветра занижена на 2-4 м/с пo сравнению с oткрытым местoм. Скoрoсть ветра над акватoриями крупных рек и oзёр, а также на вершинах хoлмoв на 2-5 м/с выше, чем в oбычных услoвиях.
Атмoсфернoе давление в разных тoчках местнoсти мoжет значительнo oтличаться oт давления на метеoстанции, в зависимoсти oт услoвий рельефа (при пoдъёме на 10 м давление пoнижается примернo на 1 мм рт.ст.).